RADUGA 1-8 1 34264U 09010A 21016.39797118 .00000105 00000-0 00000-0 0 9990 2 34264 8.2236 57.9845 0014789 340.2187 79.5115 0.99821452 43436 SL-12 R/B(2) 1 34265U 09010B 21016.45386309 -.00000247 00000-0 00000-0 0 9992 2 34265 8.2244 58.0436 0004476 306.6897 202.2179 1.00000841 43417